FW7271 Weather Reports


Display with metric or nautical units.
time (UTC)temp
F
wind
direction
speed
MPH
gust
MPH
rain 1hr
in
rain 24hr
in
rain mn
in
humidity
%
barometer
mb
20260503190038 59 179 6.0 20.0 0.00 0.04 0.02 61 1015.0
20260503184610 59 189 6.0 13.0 0.00 0.04 0.02 54 1015.0
20260503183020 59 178 5.0 12.0 0.00 0.04 0.02 53 1015.9
20260503181609 60 188 6.0 13.0 0.00 0.04 0.02 55 1015.7
20260503180113 59 180 4.0 14.0 0.01 0.04 0.02 55 1015.5
20260503174545 58 209 7.0 15.0 0.01 0.04 0.02 56 1015.9
20260503173113 57 169 6.0 14.0 0.01 0.04 0.02 58 1016.4
20260503171539 57 219 7.0 14.0 0.01 0.04 0.02 58 1016.8
20260503150105 58 178 10.0 19.0 0.00 0.04 0.01 55 1018.2
20260503120126 45 205 3.0 11.0 0.00 0.04 0.01 69 1018.6
20260503081514 41 230 2.0 8.0 0.01 0.05 0.01 71 1018.3
20260503071606 39 201 1.0 4.0 0.00 0.04 0.00 75 1018.6
20260503054514 39 341 0.0 2.0 0.00 0.04 0.00 75 1019.1
20260503053053 39 340 0.0 0.0 0.00 0.04 0.00 75 1019.2
20260503051508 39 341 0.0 0.0 0.00 0.04 0.00 74 1019.2
20260503050032 39 340 0.0 0.0 0.00 0.04 0.00 74 1019.3
20260503044619 40 341 0.0 0.0 0.00 0.04 0.00 75 1019.3
20260503043017 40 341 0.0 0.0 0.00 0.04 0.00 74 1019.2
20260503041613 40 341 0.0 0.0 0.00 0.04 0.00 74 1019.2
20260503040112 40 341 0.0 1.0 0.00 0.05 0.04 72 1019.2
20260503034540 41 341 0.0 1.0 0.00 0.05 0.04 71 1019.4
20260503033118 41 342 0.0 0.0 0.00 0.05 0.04 71 1019.3
20260503031538 42 341 0.0 1.0 0.00 0.05 0.04 71 1019.4
20260503030054 42 341 0.0 0.0 0.00 0.05 0.04 69 1019.4
20260503024505 43 341 0.0 2.0 0.00 0.05 0.04 69 1019.4
20260503023052 43 340 0.0 2.0 0.00 0.05 0.04 67 1019.4
20260503021502 44 341 0.0 1.0 0.00 0.05 0.04 65 1019.3
20260503020013 45 340 0.0 1.0 0.00 0.05 0.04 62 1019.3
20260503014556 46 341 0.0 1.0 0.00 0.05 0.04 60 1019.2
20260503013011 47 342 0.0 1.0 0.00 0.05 0.04 57 1019.0
20260503011605 48 341 0.0 1.0 0.00 0.05 0.04 55 1019.0
20260503010109 50 341 0.0 2.0 0.00 0.05 0.04 51 1018.9
20260503004535 51 340 0.0 1.0 0.00 0.05 0.04 47 1018.9
20260503003105 52 342 0.0 3.0 0.00 0.05 0.04 44 1019.0
20260503001521 53 341 0.0 2.0 0.01 0.05 0.04 42 1018.8
20260503000044 54 341 1.0 6.0 0.01 0.05 0.04 41 1018.8
20260502234615 54 15 2.0 8.0 0.01 0.05 0.04 40 1018.9
20260502233041 55 334 2.0 5.0 0.01 0.05 0.04 39 1018.9
20260502231612 54 336 3.0 10.0 0.00 0.04 0.03 39 1018.8
20260502230008 54 308 2.0 10.0 0.00 0.05 0.03 38 1019.0
20260502224555 54 304 4.0 11.0 0.00 0.05 0.03 40 1018.9
20260502223008 54 274 5.0 11.0 0.00 0.05 0.03 38 1019.0
20260502221548 54 326 4.0 12.0 0.00 0.05 0.03 39 1019.0
20260502220146 54 296 3.0 11.0 0.00 0.05 0.03 41 1019.1
20260502214515 53 338 4.0 11.0 0.00 0.05 0.03 40 1019.2
20260502213104 53 345 6.0 11.0 0.00 0.05 0.03 39 1019.1
20260502211511 53 293 5.0 17.0 0.00 0.05 0.03 41 1019.0
20260502210024 53 358 3.0 14.0 0.00 0.05 0.03 41 1019.2
20260502204615 53 355 4.0 10.0 0.00 0.05 0.03 41 1019.2
20260502203020 53 355 5.0 10.0 0.00 0.05 0.03 43 1019.4
20260502201603 53 325 4.0 10.0 0.00 0.05 0.03 41 1019.5
20260502200120 54 338 4.0 13.0 0.00 0.06 0.03 41 1019.6
20260502194548 53 285 6.0 15.0 0.00 0.06 0.03 41 1019.8
20260502193114 54 17 4.0 13.0 0.00 0.06 0.03 39 1019.7
20260502191543 54 355 7.0 16.0 0.01 0.06 0.03 39 1019.8